Theta_e
310 309 308 308 307 306 306 306 306 306 307 307 309 310 310 309 309 309 310 311 313 315 316 319 324 328 330 331 333 333 333 333 334 334 334 335 335 335 334 334 334 335 335 336 337 339 340 340 339 339 339 339 339 339 338 338 337 336 335 335 336 335 335 335 334 334 334 333 333 333 333 333 332 332 331 331 331 331 330 331 331 331 331 330 330
309 309 308 307 306 306 306 307 306 306 306 306 307 309 309 309 309 309 309 310 311 313 314 315 318 322 325 327 330 331 332 332 332 333 334 334 334 334 334 333 333 334 335 335 336 338 339 339 339 338 338 339 339 339 338 338 337 337 336 335 335 335 335 334 334 334 334 333 332 333 333 333 333 332 332 331 331 330 330 330 331 331 330 330 329
310 310 308 307 307 306 306 306 306 306 306 306 306 306 307 307 307 308 308 308 309 310 312 313 314 316 319 321 324 327 329 330 331 332 332 333 333 333 333 333 333 333 334 335 336 337 338 338 337 337 337 338 338 338 338 337 337 337 336 336 335 335 335 335 334 334 333 333 333 333 332 332 332 331 331 332 331 330 330 330 330 330 330 329 329
308 308 308 307 305 304 304 304 303 303 304 304 304 304 305 305 306 307 307 307 308 308 309 310 312 312 314 316 318 321 324 326 328 329 331 332 332 333 332 333 333 333 333 334 334 335 336 336 336 336 336 336 336 337 337 337 337 337 337 336 336 335 335 334 335 334 334 334 333 332 331 330 331 330 329 330 329 330 331 330 331 330 330 330 329
307 307 306 304 303 303 303 302 302 302 302 302 302 302 302 302 303 304 305 306 307 307 307 308 309 309 310 312 313 314 316 319 321 325 329 330 330 331 332 332 333 333 333 333 334 334 334 334 335 335 334 335 336 337 337 337 337 337 337 336 336 335 334 334 334 334 334 334 332 332 332 331 332 329 328 329 328 329 330 330 330 330 329 329 328
306 305 303 303 302 302 302 302 302 302 302 302 301 301 301 301 302 302 302 303 304 305 306 307 307 307 308 310 311 311 311 313 315 317 322 327 329 330 330 331 332 333 333 333 333 333 333 333 333 334 333 333 335 336 337 337 337 337 336 336 336 336 335 334 334 334 334 334 333 332 332 331 330 327 328 330 328 328 329 329 329 328 327 327 327
303 303 302 302 302 302 302 302 301 301 301 301 301 301 300 301 301 301 302 302 302 303 304 305 306 307 307 308 310 310 310 311 313 313 315 319 324 328 329 330 330 330 331 332 332 332 333 333 332 333 333 332 332 333 335 335 336 337 337 336 336 336 335 334 333 333 333 333 333 332 331 330 329 328 328 329 328 328 328 328 327 327 327 327 328
303 302 302 302 302 302 302 301 301 301 300 300 300 300 300 300 301 301 301 302 302 303 303 304 304 305 306 307 308 309 309 310 311 312 312 313 317 321 324 327 328 328 328 329 330 331 332 332 332 332 331 331 331 332 332 332 332 334 335 336 336 336 335 334 333 333 332 332 333 332 331 331 330 328 327 326 327 328 327 326 326 326 326 326 326
302 302 302 302 302 301 301 301 301 300 300 300 299 299 299 299 300 300 300 301 301 302 303 303 303 303 304 306 307 308 308 309 309 310 310 311 312 314 317 321 325 327 327 327 327 329 330 330 331 331 331 331 330 331 332 332 331 330 332 333 335 335 335 334 334 333 333 332 332 332 331 331 329 329 328 326 326 327 327 326 324 325 325 324 324
302 302 302 301 301 301 301 301 300 300 299 299 299 299 299 299 299 299 299 299 300 301 302 302 303 303 303 303 305 306 307 308 308 309 309 309 310 310 312 315 320 323 325 325 325 326 327 328 328 329 329 330 330 331 332 333 334 332 332 332 334 335 335 335 334 333 333 332 332 331 330 329 328 327 327 327 326 325 325 324 321 322 325 323 323
302 301 301 299 299 299 299 300 300 299 299 299 299 299 299 299 299 299 299 299 299 299 300 301 302 303 303 303 303 304 305 306 307 308 309 309 309 309 310 311 314 318 321 323 323 324 324 326 326 326 327 328 329 330 331 332 333 334 334 335 335 335 335 335 334 334 333 332 331 330 329 329 327 326 326 326 325 324 325 324 320 320 322 321 321
301 301 300 299 298 298 297 298 299 299 299 299 299 299 299 299 299 299 299 298 298 298 299 299 300 302 303 303 303 303 304 305 306 307 308 309 309 309 310 310 311 314 317 319 321 323 323 324 325 325 326 326 328 329 330 331 331 332 333 334 335 335 335 334 333 333 333 331 330 329 329 328 327 327 326 325 325 323 323 324 321 320 321 320 320
299 299 299 299 299 297 296 297 297 298 298 298 298 298 298 299 299 299 299 298 298 298 298 299 299 300 302 303 303 303 303 303 304 306 307 308 308 309 310 310 310 312 315 318 320 322 323 323 323 324 324 325 326 327 328 330 331 331 331 331 333 334 334 334 333 332 332 332 331 329 328 327 326 325 325 325 325 323 322 322 320 319 320 318 319
298 298 298 298 298 296 296 296 296 296 297 298 298 298 298 298 298 298 298 298 298 298 298 298 299 299 300 302 303 303 303 303 303 304 305 307 308 308 309 309 310 311 313 316 319 321 322 323 323 323 323 324 324 325 327 328 329 331 331 330 331 332 333 333 332 332 332 331 330 329 328 328 326 324 324 323 323 322 321 321 319 319 318 316 317
297 297 296 296 296 295 296 296 296 296 296 297 297 298 298 298 298 298 298 298 298 298 298 298 298 299 300 301 302 303 303 304 303 303 304 305 306 308 308 309 309 310 311 313 315 319 321 322 323 323 322 322 323 324 326 327 328 329 331 331 331 331 331 332 332 332 331 330 330 329 328 327 325 324 323 323 322 322 321 320 319 319 319 318 317
296 296 295 295 294 294 295 295 295 295 295 296 297 297 298 298 298 298 297 297 297 297 297 297 298 299 299 300 301 303 303 304 304 304 303 304 304 306 307 308 308 309 310 310 312 315 318 321 322 322 322 322 323 324 324 325 326 327 329 330 330 330 330 331 331 331 331 330 330 329 328 325 324 323 323 323 322 321 321 321 320 319 319 320 319
296 296 295 294 293 293 293 294 294 295 295 295 296 297 297 297 297 297 297 297 297 297 297 296 297 298 299 300 301 302 303 303 304 304 304 304 304 304 305 306 307 308 308 309 310 311 315 318 321 322 322 322 322 323 323 324 324 325 327 328 329 330 330 330 330 330 330 329 329 328 326 324 323 323 323 322 322 321 321 321 320 318 317 318 319
295 295 295 294 293 292 292 292 293 294 294 295 295 296 297 297 297 297 297 297 297 297 297 296 296 297 298 299 300 301 302 302 303 304 304 304 304 304 304 305 306 307 308 308 309 309 311 315 318 320 322 322 322 322 323 324 324 324 325 327 328 329 330 330 330 329 329 329 328 326 324 324 323 322 322 322 321 321 320 320 321 319 318 317 316
295 294 294 294 292 292 292 292 292 293 294 295 295 296 297 297 297 297 297 297 297 296 296 296 296 296 297 298 299 300 301 302 303 304 304 304 304 304 304 305 305 306 307 307 308 309 309 311 314 316 319 322 323 322 323 323 324 325 325 326 327 328 329 329 329 329 328 328 327 325 324 323 322 322 322 321 321 321 321 320 321 320 319 317 314
294 293 293 293 292 292 292 291 291 292 293 294 295 295 296 297 297 297 297 296 296 296 296 295 295 295 296 296 297 299 300 302 303 304 304 304 304 304 304 305 305 305 306 307 307 308 309 309 311 313 317 320 321 322 323 324 324 324 325 325 326 327 328 328 328 328 327 327 326 325 324 323 322 322 321 321 320 320 320 320 321 320 318 317 315
293 293 293 293 292 292 292 291 291 291 292 294 294 295 295 296 296 297 296 296 296 296 295 295 295 295 295 295 296 297 298 300 301 303 303 304 304 304 304 304 305 305 305 306 307 307 308 308 309 311 313 315 317 319 321 323 324 324 325 325 326 326 327 327 327 327 326 325 325 324 323 322 322 322 321 320 320 319 320 319 320 319 317 317 316
292 292 292 292 292 292 292 291 291 291 292 293 294 294 294 295 296 296 296 296 295 295 294 294 294 294 295 295 295 296 297 297 299 300 302 303 303 304 304 304 304 305 305 306 307 307 308 308 309 310 311 313 314 316 318 321 323 324 325 325 325 325 326 326 326 325 324 324 323 322 322 322 322 321 320 320 319 319 319 318 318 318 316 316 316
291 291 291 292 291 291 291 291 290 291 292 293 294 294 294 295 296 296 295 295 295 294 294 293 293 293 294 294 295 295 295 295 296 298 299 301 302 303 303 304 304 304 305 305 306 306 307 308 308 309 310 311 312 314 316 318 321 322 323 324 325 324 325 325 325 324 323 322 321 321 321 321 321 321 320 319 318 318 318 317 317 316 316 315 316
292 292 292 291 291 290 290 290 290 291 292 293 293 294 295 295 295 295 295 294 294 293 293 292 292 292 293 293 294 294 295 294 294 295 297 298 300 301 302 303 303 304 304 305 305 306 306 307 308 308 309 309 311 312 314 316 318 319 320 321 323 323 323 323 323 323 322 321 321 320 320 320 320 319 319 318 317 317 317 316 315 315 315 315 315
292 292 291 291 290 290 289 289 289 290 291 293 294 294 294 294 295 294 294 293 292 292 291 291 291 291 292 293 293 294 293 293 293 293 294 296 298 300 301 302 303 303 304 304 305 305 306 306 307 308 309 309 310 311 313 314 315 316 317 318 320 321 322 321 321 322 321 321 321 320 319 319 318 318 318 317 317 317 316 315 315 314 314 314 314
292 292 292 291 291 290 289 289 289 289 291 293 294 294 294 294 294 294 293 292 291 291 291 290 290 291 291 292 292 293 292 292 292 292 292 293 296 298 300 301 302 302 303 303 304 304 305 306 306 307 308 309 310 310 311 311 312 313 315 316 318 320 320 320 320 320 320 320 320 319 319 318 318 317 317 317 317 316 315 314 314 313 313 314 314
293 292 292 292 291 290 289 288 289 290 292 294 294 293 293 293 293 293 292 292 291 290 289 289 290 290 290 291 291 291 291 291 291 291 291 292 293 295 297 299 300 301 302 302 303 303 304 305 306 306 307 308 309 310 309 310 310 311 313 315 316 318 319 320 320 319 319 319 319 318 318 318 317 317 317 316 316 315 314 314 314 313 313 313 313
293 292 292 292 292 291 289 288 289 291 293 293 293 293 292 292 292 292 291 291 290 290 288 288 289 289 289 289 290 290 290 290 290 289 289 290 291 292 294 295 298 299 300 301 302 303 304 304 305 306 306 307 308 308 308 308 309 310 312 313 314 316 317 319 319 319 318 318 317 317 317 317 317 316 316 316 315 315 314 313 313 313 313 313 312
292 292 292 292 292 292 290 288 289 292 293 293 292 292 292 291 291 291 291 290 290 289 288 287 287 287 288 288 288 288 288 289 289 289 288 289 289 290 291 292 295 298 299 300 301 302 303 304 304 305 305 306 307 307 307 308 308 310 311 312 314 315 316 317 318 318 318 317 317 316 316 316 316 316 316 315 315 314 314 313 313 313 312 312 312
293 292 292 292 291 291 289 287 289 293 293 292 292 291 291 291 290 290 290 289 289 288 287 286 286 286 286 286 287 287 287 287 288 288 288 288 288 289 290 291 293 295 298 299 300 301 302 303 304 304 305 306 306 307 307 307 308 309 310 311 312 313 314 315 316 316 316 316 316 316 315 315 315 315 315 315 315 314 313 313 313 313 312 312 311
292 292 292 291 291 291 289 287 290 293 293 292 291 291 290 290 289 289 289 288 288 288 286 285 285 285 285 285 286 286 286 286 286 287 287 287 287 287 289 290 291 293 295 297 299 300 301 302 303 304 304 305 306 306 307 307 307 308 309 310 311 311 312 313 313 314 314 315 315 315 315 315 315 315 315 315 314 314 313 313 313 312 312 311 311
292 292 292 291 290 290 289 288 290 293 292 291 291 290 289 289 289 289 288 288 288 287 285 284 284 284 284 284 284 285 285 285 285 286 286 286 286 287 288 289 290 291 292 294 296 298 299 300 301 303 303 304 305 306 306 307 307 307 308 309 310 310 310 311 311 312 312 313 313 314 314 314 314 314 314 314 314 313 313 313 313 312 312 311 310
292 292 292 291 290 289 288 289 291 292 291 290 290 289 288 288 288 287 287 287 288 286 285 284 284 284 284 283 283 284 284 284 284 284 285 285 286 286 287 288 289 289 290 292 294 296 297 299 300 301 302 303 304 305 306 307 307 307 308 309 310 310 310 310 310 310 311 311 312 313 313 313 313 314 314 314 313 313 313 313 312 312 311 310 310
293 292 292 292 290 287 288 291 292 291 290 290 289 288 287 287 286 286 287 287 287 285 284 283 283 283 283 283 283 282 283 283 283 283 284 284 285 285 286 287 288 288 289 290 292 293 295 297 298 300 301 302 303 304 305 306 306 307 308 309 309 309 309 309 309 309 310 310 310 311 312 312 313 313 313 313 313 313 313 312 312 311 310 310 310
292 292 292 292 288 287 290 292 291 290 289 289 288 287 286 285 285 286 287 287 285 284 283 282 282 281 281 281 281 281 282 282 282 282 283 283 284 285 285 286 287 287 288 289 290 291 293 294 296 297 299 300 302 303 304 305 306 306 307 308 308 308 308 308 309 309 309 309 310 310 310 311 312 312 313 313 313 312 312 311 311 310 310 309 309
292 291 292 290 287 288 291 291 289 289 288 286 286 285 284 284 285 286 286 285 284 283 282 281 280 280 280 280 280 280 281 281 281 282 282 282 283 284 285 286 286 286 287 288 289 290 291 293 294 296 297 299 300 302 303 304 305 306 306 307 307 307 307 307 308 308 309 309 309 309 310 310 311 311 312 312 312 312 311 310 310 309 309 309 309
291 290 290 289 288 290 291 289 288 287 285 284 284 283 283 284 285 285 284 283 282 281 280 279 279 279 279 278 279 279 280 280 281 281 281 282 282 283 284 285 285 286 287 288 289 290 291 292 293 294 295 297 298 300 302 303 304 304 305 306 306 306 306 306 307 307 308 309 309 309 309 310 310 310 311 311 311 311 310 309 309 308 308 309 309
290 289 289 290 290 289 289 287 285 284 283 283 282 282 283 283 283 283 282 281 280 279 278 277 277 277 277 278 278 278 279 279 280 280 280 281 281 282 284 284 285 285 286 287 288 289 290 291 292 293 294 295 296 298 300 302 303 304 304 305 306 306 305 305 306 307 308 308 309 309 309 309 310 310 310 311 311 310 309 308 308 308 307 307 308
289 289 289 288 288 287 286 285 283 282 281 281 281 282 282 282 281 281 279 278 277 277 276 276 276 276 276 277 277 278 278 278 279 279 279 280 281 282 283 283 284 285 286 286 287 288 290 291 291 292 293 294 294 296 298 300 302 303 304 304 305 305 304 305 305 306 307 308 308 309 309 309 309 309 309 310 310 309 309 308 308 307 306 306 307
289 289 288 287 287 285 283 282 281 280 280 280 281 281 280 280 279 278 277 276 275 274 275 275 276 276 276 276 276 277 277 277 278 278 279 280 280 281 282 283 284 285 286 286 287 288 290 290 291 291 292 293 294 295 296 298 300 301 303 304 304 304 304 304 305 306 307 308 308 308 308 309 309 309 309 309 309 309 309 308 307 307 306 306 306
288 287 287 286 284 282 281 280 279 278 278 279 280 279 278 278 277 275 274 274 273 273 274 275 276 276 275 275 276 276 276 276 277 277 278 279 280 280 281 282 283 285 286 287 287 288 289 290 291 291 292 293 294 294 295 297 298 299 301 302 303 303 303 304 305 306 306 307 308 308 308 309 309 309 309 309 309 309 308 308 307 307 306 306 306
287 286 286 283 281 280 279 278 277 277 277 278 278 277 276 276 275 273 273 273 273 273 273 274 275 275 275 275 275 275 275 275 276 277 278 278 279 280 281 282 283 284 286 286 287 288 289 290 291 291 291 292 293 294 295 296 296 298 299 300 301 302 303 304 305 305 306 307 307 308 308 308 308 309 308 309 309 308 308 308 307 307 306 306 305
286 285 284 281 280 278 277 277 276 276 276 276 276 275 274 273 272 271 272 272 273 274 274 275 275 274 274 274 274 274 274 275 275 276 277 277 278 279 280 281 282 284 285 286 287 288 289 290 290 290 291 291 293 294 294 295 295 296 297 298 300 301 302 303 304 305 306 307 307 308 308 308 308 308 308 309 308 308 308 307 307 307 306 305 305
284 284 282 280 278 277 276 275 275 274 274 274 274 272 271 271 270 270 271 272 273 274 274 274 273 272 272 273 274 274 273 274 274 275 276 277 278 278 279 280 281 283 284 286 287 288 289 289 289 289 290 291 292 293 293 294 295 295 296 297 298 300 301 301 302 303 305 307 307 307 308 308 308 308 308 308 308 308 308 307 306 306 306 305 304
283 282 281 279 277 276 275 274 274 273 273 272 272 271 269 268 268 269 271 272 273 273 272 271 270 271 271 272 273 273 273 273 273 274 275 276 277 278 278 279 280 281 283 284 286 287 288 288 288 288 289 289 290 291 292 293 294 294 295 296 297 298 300 300 301 302 304 306 307 307 307 308 308 307 308 308 307 307 307 306 306 306 305 305 305
282 281 279 278 276 276 274 274 273 272 272 271 271 270 268 267 268 269 271 272 273 272 270 268 268 269 270 271 272 272 272 272 272 273 274 275 276 277 277 278 279 280 281 283 284 286 287 287 287 287 288 288 288 289 291 293 294 294 294 295 296 297 298 299 300 300 301 304 306 307 307 307 307 307 307 307 306 306 306 305 305 305 305 305 305
281 280 279 277 276 275 274 273 272 271 270 270 269 268 267 267 268 269 270 272 272 270 268 267 268 268 269 270 270 271 271 271 272 272 273 274 275 275 276 277 278 279 280 281 283 284 285 285 286 286 287 287 288 288 289 291 293 293 293 293 295 296 297 298 299 299 300 302 305 307 307 307 307 306 306 306 305 304 304 303 303 304 304 304 305
278 278 277 276 275 274 273 271 270 269 269 268 268 267 267 267 268 268 269 270 269 268 266 267 267 267 268 269 269 269 270 270 271 271 272 273 274 274 275 276 277 278 279 280 281 282 283 284 285 286 286 287 288 288 289 290 290 291 291 292 293 294 295 297 297 298 299 301 304 306 306 306 305 304 303 302 302 302 302 302 302 303 304 304 305
275 274 274 274 273 272 271 269 268 268 267 267 267 266 265 266 267 268 268 267 266 265 265 265 266 266 267 267 268 268 269 270 270 271 271 272 273 273 274 275 277 278 278 279 280 281 282 283 284 285 286 287 288 288 288 288 289 289 290 290 292 292 294 296 297 298 299 301 302 304 303 303 301 300 299 299 300 300 301 301 302 303 303 304 304
272 272 271 271 270 269 268 267 266 266 265 265 265 264 264 265 266 266 266 264 263 263 263 264 265 265 266 266 267 267 268 269 270 270 271 271 272 273 274 275 276 278 278 279 280 281 282 283 284 286 286 287 287 288 288 288 289 289 290 290 291 292 293 295 297 298 299 300 301 300 300 300 299 299 298 298 299 299 299 299 300 301 302 303 303
269 270 270 269 268 267 266 265 264 264 263 264 264 263 263 263 264 264 263 262 261 261 261 262 263 264 265 266 266 267 268 269 269 270 270 271 272 273 274 274 275 276 277 278 280 281 283 284 284 285 286 286 287 288 288 288 289 289 290 290 291 292 292 294 296 297 298 299 300 299 298 298 299 298 298 298 298 298 298 298 299 299 300 301 302
Wind_Speed
5 11 13 11 9 9 10 11 11 10 9 9 9 10 10 11 12 12 13 13 14 15 16 16 18 19 21 22 25 26 27 27 28 29 29 28 27 28 28 28 27 28 31 32 33 33 31 30 29 29 29 31 32 33 33 33 32 31 29 28 27 27 28 26 23 21 19 16 15 18 22 23 24 25 26 27 27 28 29 30 29 28 27 27 27
3 6 8 9 10 11 11 10 8 7 7 6 6 7 7 8 9 11 12 13 14 16 16 17 18 19 20 22 23 25 27 28 29 30 30 30 28 27 28 30 30 30 31 31 32 33 31 30 30 30 31 32 33 33 33 33 33 32 30 28 27 27 28 29 26 21 17 15 11 10 14 19 23 25 26 26 27 27 29 30 31 31 30 29 28
4 5 6 9 8 3 1 4 6 6 5 4 4 3 3 4 5 8 10 13 14 16 16 17 18 19 20 20 20 22 24 26 28 29 29 29 29 29 29 31 33 33 33 31 30 30 30 31 31 32 32 32 33 32 32 33 34 33 32 30 28 27 27 29 30 26 20 16 12 7 5 7 12 18 23 27 27 28 29 29 30 30 29 28 26
5 5 3 1 5 11 13 14 13 12 11 9 9 8 6 4 4 4 5 8 11 13 16 17 18 19 20 20 20 20 21 21 24 27 28 29 30 31 32 33 34 35 35 33 30 29 30 31 31 31 32 32 32 33 33 34 35 35 34 33 30 27 25 26 28 30 27 18 9 3 3 3 4 7 15 23 26 28 29 29 29 29 28 27 26
5 3 3 6 10 13 14 14 13 12 12 11 10 9 7 7 7 7 6 7 8 11 13 15 17 18 19 21 22 22 22 21 21 22 25 29 30 31 33 33 34 34 35 35 33 31 30 31 31 31 31 31 31 32 34 35 36 37 36 35 34 30 26 25 26 29 31 27 17 7 3 3 4 5 8 12 18 24 27 28 30 30 30 30 28
2 4 6 7 8 11 14 15 14 13 12 11 10 8 7 7 7 8 9 10 10 11 12 13 16 18 18 19 20 20 21 23 24 23 23 25 28 30 32 33 34 34 35 35 34 33 32 32 33 33 33 32 32 31 32 34 36 38 38 37 37 36 30 25 25 28 30 33 31 22 13 8 3 2 3 4 8 17 21 22 26 26 25 25 25
7 7 7 7 9 10 12 13 14 13 11 10 10 9 9 8 7 6 7 8 10 11 12 12 14 16 18 19 19 19 19 20 23 24 25 26 26 27 29 32 35 36 36 36 35 34 34 35 35 35 35 34 34 33 33 35 36 37 38 38 38 37 33 27 24 26 27 30 34 32 26 21 14 8 4 2 2 8 14 17 20 22 22 23 24
6 6 7 7 8 9 10 11 12 11 10 11 12 11 10 10 9 8 7 7 7 8 11 12 13 14 16 19 21 22 22 22 22 22 24 25 26 27 28 29 32 35 37 38 37 37 36 36 36 37 37 36 35 36 37 38 38 37 37 39 38 37 36 33 28 27 26 26 29 31 30 28 26 20 15 9 2 2 6 10 14 18 21 22 23
7 7 7 6 8 9 9 10 10 10 11 12 12 12 12 11 10 10 10 9 8 8 9 11 13 14 16 17 19 21 22 23 24 25 25 25 25 27 28 29 30 33 36 38 38 38 38 38 37 37 37 37 37 36 36 37 38 39 38 39 39 38 38 37 34 32 30 28 27 28 27 26 26 26 23 17 10 6 5 4 8 12 16 21 23
7 7 6 7 9 9 10 11 11 11 11 11 12 13 13 12 12 13 13 12 11 10 9 10 11 13 16 17 18 20 20 21 22 25 27 27 28 27 27 28 29 31 33 35 37 38 38 39 39 39 39 38 38 38 36 35 35 37 39 39 40 39 39 39 39 35 33 32 31 29 26 23 18 16 19 19 15 12 9 6 8 10 10 15 20
6 6 6 8 11 11 11 11 11 11 12 12 13 14 13 13 13 13 14 14 14 13 11 10 10 11 14 16 18 20 20 21 22 23 24 24 27 28 28 29 29 30 31 33 35 37 38 39 40 41 41 39 39 38 38 37 35 34 35 36 39 39 38 38 38 36 32 29 30 30 29 26 21 16 18 21 16 11 9 7 9 13 11 13 15
6 6 6 7 8 9 10 11 10 11 12 13 13 14 14 14 13 14 15 15 15 15 14 12 11 11 12 14 17 19 20 21 22 23 24 24 25 26 27 29 30 30 31 32 34 36 37 39 40 40 40 40 40 39 39 39 37 35 34 33 35 37 38 37 36 36 34 29 27 28 28 28 29 27 25 25 23 19 14 7 8 12 11 15 17
6 6 5 5 5 6 8 9 9 10 11 12 13 14 14 14 14 15 15 15 16 16 16 15 13 12 12 13 15 17 19 21 23 24 24 25 26 26 26 27 28 29 30 32 33 34 36 38 40 40 40 41 41 40 39 38 36 36 37 36 35 35 37 38 37 37 37 35 31 29 28 28 30 30 29 27 26 25 19 9 9 12 9 11 15
6 5 5 5 5 6 8 8 8 9 10 11 11 13 14 14 15 15 16 16 16 16 17 17 16 14 13 13 15 16 18 19 22 23 24 25 26 26 27 27 28 28 29 30 31 32 34 37 39 40 41 41 42 41 40 38 35 35 36 37 38 37 37 38 37 37 37 38 37 34 32 33 32 31 31 30 27 25 22 15 10 9 10 10 11
5 5 5 5 6 7 7 7 7 8 9 10 10 12 13 14 15 15 17 17 17 17 17 17 17 16 14 13 14 15 17 19 20 22 23 24 25 26 27 28 28 29 29 29 30 30 32 34 37 39 40 41 41 41 40 39 37 36 36 36 38 38 38 38 38 37 37 37 36 34 33 34 35 33 31 31 30 29 28 24 16 8 7 8 7
5 5 5 5 6 7 7 5 6 6 7 8 9 11 12 13 14 15 16 16 17 17 17 18 17 17 16 14 13 14 16 18 20 21 22 23 25 26 28 28 29 29 29 29 29 29 31 33 35 37 39 40 40 40 40 40 40 39 38 37 37 38 38 38 38 37 36 35 34 34 34 34 34 33 31 30 31 31 30 29 25 17 8 4 4
5 5 5 5 5 6 5 4 4 5 6 8 9 10 11 12 13 14 15 16 17 17 18 18 18 18 17 15 13 13 15 17 18 20 21 23 25 27 28 29 29 29 30 30 30 29 29 30 32 34 37 38 38 39 40 40 40 40 40 39 39 38 38 38 38 37 37 36 35 36 36 34 32 31 31 31 31 32 30 29 29 27 19 8 4
5 5 5 4 3 3 3 4 6 6 6 7 8 9 10 11 12 13 15 16 17 18 18 19 19 18 18 17 16 15 14 15 17 19 21 22 24 25 27 28 29 29 29 30 31 31 31 29 30 31 33 35 36 37 38 39 40 39 40 40 39 38 37 36 37 37 38 37 36 35 35 34 33 31 31 31 32 32 32 31 29 29 25 16 8
5 5 4 3 1 2 3 5 7 7 7 7 8 9 9 10 11 12 14 15 16 17 18 19 19 19 19 19 19 18 16 15 16 18 20 22 24 25 26 27 28 29 29 29 30 31 31 31 30 31 31 32 33 35 36 37 38 39 38 38 38 38 36 35 35 36 38 38 37 36 35 35 34 33 32 32 32 32 32 32 30 28 27 24 19
4 3 2 1 1 4 5 7 8 8 7 7 8 9 9 10 11 12 14 15 16 18 19 20 20 20 21 20 20 19 18 16 15 16 19 21 23 24 25 27 27 28 28 29 30 30 30 30 30 31 31 31 30 31 33 35 37 38 38 37 37 37 37 36 35 35 36 37 38 37 36 36 35 34 34 33 33 33 33 33 32 31 29 27 25
4 3 3 3 3 4 5 7 8 8 8 8 9 10 11 11 11 12 13 15 17 19 20 21 21 21 21 22 22 21 20 18 16 16 17 19 21 23 24 25 26 27 27 28 29 30 30 31 31 32 33 33 32 31 31 33 35 37 37 37 36 36 37 37 37 36 36 36 37 38 38 37 35 35 35 34 34 34 34 33 33 32 31 28 26
4 4 4 4 4 3 3 5 8 8 7 8 9 11 12 12 12 12 12 14 16 18 20 21 21 21 21 22 22 22 21 21 19 17 16 16 18 20 22 24 26 26 27 27 28 28 29 30 30 31 32 33 34 34 33 32 32 34 35 36 36 36 37 36 36 37 37 36 36 37 37 37 36 36 36 35 34 34 35 35 34 33 32 30 28
5 5 5 4 3 1 2 4 6 7 7 7 9 11 12 13 13 12 13 14 15 17 19 20 21 21 22 22 22 22 22 23 21 19 18 17 17 18 20 22 25 26 26 27 27 28 28 28 29 30 31 31 32 34 34 34 33 32 32 32 34 36 37 37 37 37 37 35 34 35 35 36 36 36 37 35 34 35 35 35 35 35 33 31 30
5 5 5 4 2 1 2 4 5 6 6 7 9 10 11 12 12 13 13 14 15 17 18 19 21 22 21 21 21 22 23 24 24 22 20 19 18 18 18 21 23 25 26 26 27 27 28 28 29 30 31 31 32 33 34 35 36 35 33 32 31 33 35 36 38 37 36 36 35 35 35 35 36 36 36 35 34 35 36 35 35 34 33 32 31
6 5 4 4 3 2 1 3 5 5 6 6 7 9 11 11 11 12 13 14 16 17 18 19 21 21 22 22 21 22 24 25 25 25 23 22 20 18 18 19 22 24 26 26 26 27 27 28 29 29 29 29 31 32 32 34 35 36 36 36 34 34 34 34 35 36 36 37 37 37 36 36 36 36 34 34 34 35 36 35 34 34 33 32 31
6 6 5 5 4 3 3 3 5 5 6 6 6 9 10 10 10 11 12 14 17 19 20 21 21 21 21 22 21 22 24 25 25 26 26 24 22 20 18 18 20 22 24 26 26 26 26 28 29 29 28 28 29 30 31 33 34 35 36 36 36 36 35 35 35 35 36 37 38 38 38 37 37 37 36 35 35 35 36 35 34 34 33 31 30
6 6 5 5 4 4 4 4 4 5 5 5 6 8 9 9 10 10 12 14 16 19 20 21 21 21 21 20 21 23 24 24 25 26 26 25 24 22 21 19 19 20 23 24 26 27 26 27 28 29 28 28 28 29 30 31 33 35 36 36 36 36 36 37 37 37 37 38 39 39 39 39 39 39 38 38 37 36 36 35 35 34 33 31 30
5 5 6 6 6 5 5 5 6 5 4 5 6 7 7 9 9 10 11 13 14 18 20 21 21 22 21 21 22 22 22 23 25 26 25 25 25 25 23 21 19 19 20 22 24 26 27 27 27 28 29 28 28 29 29 31 32 33 34 35 35 35 35 35 36 37 38 39 39 40 40 41 42 41 41 41 40 38 36 34 34 34 34 32 31
6 6 6 7 7 6 7 7 8 7 5 4 5 5 7 8 9 10 11 12 13 16 20 20 20 21 22 23 24 23 23 23 25 26 26 25 26 26 25 23 20 18 18 20 22 25 27 27 27 27 28 29 29 30 30 31 32 32 32 32 33 34 35 34 35 36 37 38 38 40 41 42 42 43 43 43 42 40 38 36 35 35 34 33 31
8 7 7 7 7 8 8 9 10 9 6 4 4 4 7 9 10 10 11 12 13 16 19 19 19 21 22 24 25 25 25 24 24 25 26 27 27 27 26 25 23 20 17 18 21 23 25 27 27 27 28 28 29 30 31 31 31 31 30 31 31 32 33 34 34 34 35 37 37 38 40 41 42 42 43 43 42 42 41 40 39 39 38 35 32
8 8 7 7 8 8 8 9 11 11 8 5 3 4 6 9 10 11 12 13 13 15 18 18 18 20 22 24 25 26 26 26 25 25 26 27 28 28 26 25 24 23 19 17 19 21 23 25 26 27 27 27 27 28 28 30 31 31 31 31 31 32 32 33 34 34 34 35 36 37 37 38 40 42 42 43 43 43 42 41 41 41 41 40 37
7 8 8 8 8 8 7 8 10 10 8 5 3 3 5 8 10 12 13 12 12 15 18 19 19 21 22 23 24 26 27 27 26 26 26 27 28 28 27 25 24 25 23 19 18 19 20 22 25 27 27 27 27 26 26 27 29 30 31 32 32 32 32 33 34 35 35 34 34 36 36 35 38 40 42 42 43 43 43 42 42 41 41 42 41
8 8 8 7 8 8 9 9 8 8 7 4 3 2 4 7 10 11 12 12 13 15 17 18 20 21 22 23 24 25 26 27 27 26 26 27 28 27 26 25 25 25 24 20 18 18 19 21 23 26 28 27 27 25 24 25 26 28 30 31 33 33 32 33 34 35 35 35 34 34 35 34 35 38 40 41 42 43 42 42 42 41 41 41 40
8 8 7 6 7 10 12 11 10 10 7 5 3 1 4 7 8 9 10 11 14 16 17 18 19 21 22 23 24 24 25 27 27 27 27 26 27 27 26 25 24 25 24 21 18 19 20 20 22 25 27 28 27 25 24 24 24 25 27 29 32 33 33 32 33 34 34 35 35 35 35 34 33 35 38 40 41 42 42 42 41 40 40 40 39
7 7 6 6 8 11 13 13 14 12 8 6 3 1 4 5 6 7 9 10 13 15 17 19 20 21 22 23 25 26 26 27 27 27 27 27 26 26 26 25 25 25 23 21 19 19 21 22 22 23 26 28 27 25 24 23 24 24 25 27 30 33 33 33 32 32 33 34 35 35 35 35 34 35 38 40 41 42 42 41 40 39 39 39 38
7 7 7 8 11 14 16 16 15 12 9 7 4 1 2 4 5 6 8 9 11 13 16 19 21 22 23 23 24 25 27 28 28 27 27 27 27 27 25 24 25 25 24 22 20 20 21 22 23 24 25 27 28 26 24 23 24 24 24 26 29 32 33 33 32 31 31 32 34 34 35 35 34 35 38 41 42 41 41 39 38 38 37 37 38
8 9 10 12 13 16 19 19 16 12 9 7 4 2 2 4 4 5 7 8 10 12 15 18 21 22 24 24 24 24 26 27 28 27 27 27 27 26 25 24 25 26 25 24 22 21 21 22 24 25 25 26 27 26 24 23 24 24 25 26 29 31 32 32 31 30 30 31 32 33 34 34 34 35 37 40 42 41 40 39 37 36 34 34 35
10 11 8 9 14 20 21 19 17 12 8 7 6 5 4 4 5 6 8 9 11 14 17 19 20 22 24 24 23 23 24 26 27 27 27 27 27 26 25 24 24 26 27 26 24 23 22 22 23 25 26 27 28 27 25 24 23 24 25 27 29 30 30 30 29 28 28 29 30 32 33 33 33 34 36 39 41 42 40 38 37 34 31 31 32
12 11 13 18 22 23 21 19 16 12 8 8 8 8 7 7 7 8 9 11 13 16 18 20 21 22 23 22 22 23 22 23 25 26 26 26 26 25 25 24 24 25 27 27 25 23 23 22 23 25 27 27 28 28 27 26 24 24 25 28 29 29 28 27 26 25 26 27 27 29 31 33 33 33 35 38 41 43 41 39 37 34 30 30 32
9 15 22 24 24 23 21 17 15 11 9 10 11 10 10 9 9 10 11 13 15 17 19 20 22 22 21 21 21 22 23 23 24 25 26 25 24 25 25 25 25 25 26 26 25 23 24 23 23 25 27 27 27 27 26 25 26 26 26 27 28 28 26 24 24 24 24 25 26 27 29 32 33 33 34 37 40 43 42 39 38 36 33 33 34
18 22 25 24 22 22 20 18 15 12 11 12 12 12 12 10 10 11 13 15 17 18 19 21 21 21 21 21 21 21 23 24 23 23 25 25 24 24 25 25 25 25 25 26 25 23 22 22 22 24 26 26 26 26 25 24 24 27 28 27 27 27 25 22 22 24 25 25 25 26 28 29 32 34 35 36 39 43 43 40 39 38 37 35 34
20 22 23 23 21 21 21 18 14 13 13 13 13 14 13 10 11 12 15 17 18 19 20 21 21 21 20 21 21 22 24 24 22 22 23 25 25 25 25 25 24 24 24 25 24 22 21 22 22 22 24 26 26 25 24 23 22 25 27 28 27 27 26 24 23 23 25 25 25 26 28 28 30 34 35 36 38 42 43 41 39 38 36 32 31
16 18 20 22 21 20 19 17 15 15 15 14 14 14 13 11 11 14 16 18 19 20 21 21 21 21 20 21 23 24 25 23 22 21 21 23 25 26 26 24 23 23 23 23 22 21 20 21 22 22 23 24 25 25 25 24 22 22 24 27 28 26 26 27 27 24 23 25 25 26 28 28 29 32 36 37 38 40 42 42 38 36 34 31 29
15 18 20 22 21 18 18 17 16 16 16 15 14 14 13 12 13 16 18 19 20 20 21 22 21 21 22 22 23 25 26 24 22 22 21 22 24 26 26 24 22 21 21 20 20 20 19 19 20 22 23 23 24 26 26 25 23 22 22 24 27 26 25 27 29 27 23 24 25 27 27 28 28 31 35 38 38 39 41 42 38 34 32 30 29
16 18 20 21 21 19 18 17 17 17 17 16 14 15 15 14 15 17 18 19 20 21 22 22 21 21 22 23 24 26 25 23 22 22 21 22 24 25 25 23 21 19 19 18 18 19 18 18 18 19 22 24 26 27 28 27 24 22 21 22 24 25 25 26 29 29 25 22 24 27 27 27 29 31 32 36 39 39 40 41 38 34 32 30 31
16 18 20 20 20 19 17 17 16 16 16 15 14 15 17 16 16 18 18 18 19 21 22 21 21 22 22 22 24 26 26 24 23 21 20 20 21 23 24 23 20 18 18 18 18 18 18 18 17 18 21 24 25 26 28 28 24 22 21 21 22 24 25 25 27 30 28 23 23 27 27 28 30 31 32 35 38 38 38 40 39 35 32 31 33
14 15 18 18 17 16 16 15 15 15 15 15 13 14 16 18 18 18 18 18 19 21 21 21 22 22 21 21 22 24 25 25 24 24 23 22 21 21 22 22 21 20 18 18 18 18 18 17 17 19 21 23 23 23 25 26 24 23 24 23 23 24 24 24 25 27 27 25 25 29 30 29 29 30 31 35 36 36 37 37 36 33 32 33 35
14 15 17 16 15 15 15 14 14 13 14 14 12 12 15 18 19 18 19 19 20 20 20 21 22 21 21 20 20 21 22 24 25 25 24 24 23 23 23 23 22 20 20 19 19 19 19 19 20 21 23 23 22 21 22 25 27 29 30 28 25 24 24 23 23 23 23 24 25 29 29 27 27 28 29 30 31 32 34 35 34 33 33 35 36
15 16 17 17 15 15 15 14 13 13 12 13 11 11 15 19 19 19 19 20 21 20 20 20 21 21 21 20 20 19 19 22 25 26 25 23 22 21 23 26 25 21 19 21 23 23 23 23 24 25 24 22 22 23 25 29 31 32 32 28 25 24 23 23 22 21 21 20 22 26 25 23 24 26 25 25 26 27 29 31 33 34 34 35 35
14 15 17 18 16 15 15 13 13 13 12 12 10 10 15 20 20 19 19 20 21 21 20 20 21 22 21 21 21 20 20 21 23 25 27 27 25 21 18 21 23 23 22 22 23 24 25 26 26 26 24 23 24 28 31 33 32 29 28 26 24 22 20 21 20 20 21 20 19 21 22 22 23 24 23 23 24 25 26 28 30 33 33 33 33
13 14 16 16 15 15 14 13 13 13 12 11 10 10 16 19 19 19 19 19 19 19 19 20 21 21 21 21 20 20 20 20 21 22 23 26 29 30 26 20 18 20 24 25 23 22 23 24 25 26 27 27 27 28 30 32 31 28 25 24 23 20 17 17 17 18 20 20 17 17 18 20 22 22 22 24 25 25 25 26 28 30 31 31 32
Wind_Direction
187 190 200 209 226 250 266 271 265 258 258 259 261 257 256 257 251 246 243 242 242 241 239 236 232 230 230 230 229 230 230 231 232 232 231 229 226 225 224 223 223 223 226 229 227 224 221 220 221 222 223 225 225 224 223 221 217 217 219 218 215 215 216 217 217 213 213 221 230 237 242 246 248 248 247 248 249 249 250 251 250 249 251 251 251
203 195 201 217 239 257 267 272 273 273 274 270 270 268 266 261 253 252 248 244 243 242 240 238 235 233 232 232 231 231 230 230 231 232 231 231 227 225 225 225 224 223 224 228 227 224 221 219 219 222 223 225 226 225 225 223 222 222 222 221 218 215 214 214 211 205 208 214 218 233 240 243 246 245 245 246 247 250 250 248 248 249 251 253 253
229 220 219 230 240 249 17 30 35 34 30 29 11 345 325 296 275 268 259 252 248 246 245 243 241 240 240 240 238 236 235 234 234 234 234 232 229 228 228 227 227 225 225 227 227 224 222 221 220 222 225 225 225 225 225 224 223 223 223 221 218 215 216 216 212 209 211 212 215 231 225 232 246 240 239 244 246 248 248 245 246 247 248 250 250
261 256 247 220 68 65 62 52 47 46 41 30 17 9 3 348 331 310 284 270 261 255 252 252 250 247 245 246 246 245 243 240 238 236 234 233 230 227 227 227 227 226 227 228 229 226 223 223 223 222 224 226 226 226 225 225 223 222 221 219 215 212 215 217 217 217 215 209 203 218 191 201 254 224 226 241 246 245 243 239 240 243 244 246 247
269 292 37 64 62 59 54 47 43 41 32 18 7 357 343 327 315 303 288 278 274 268 263 261 260 257 254 252 252 254 253 249 248 242 234 232 232 229 227 227 227 227 228 229 230 229 226 225 225 224 224 225 226 226 226 225 223 221 220 217 214 213 214 215 217 218 218 213 204 195 178 196 242 218 217 244 244 238 239 239 239 242 246 249 251
78 70 69 67 63 57 49 45 43 38 27 16 11 6 355 338 315 297 283 272 266 266 267 268 265 263 261 256 252 253 253 250 250 248 241 236 234 233 232 231 229 229 229 229 231 230 228 227 226 226 225 224 224 225 226 225 224 223 221 218 217 217 217 215 215 217 219 219 214 212 212 204 210 203 204 266 248 235 237 239 238 241 246 248 249
84 77 70 62 58 55 48 44 42 34 24 16 12 9 4 360 349 332 309 289 273 265 264 268 270 266 261 257 252 249 249 248 247 247 247 245 241 239 236 234 233 232 231 231 231 230 229 228 227 227 227 227 227 227 227 227 226 225 222 220 219 218 217 216 216 214 215 219 217 218 222 227 235 235 214 239 286 244 234 233 235 236 239 242 242
92 79 71 65 59 57 56 54 48 36 28 22 17 13 8 6 1 356 342 324 304 283 271 268 273 273 267 263 258 254 253 253 251 249 249 248 246 244 242 239 236 234 234 233 233 232 231 229 229 229 229 230 230 230 230 230 229 228 225 223 222 220 218 219 220 215 210 213 215 217 224 230 234 236 234 229 218 265 241 229 230 229 230 236 239
94 90 82 78 71 70 73 70 58 44 33 25 21 17 14 13 10 6 358 345 331 313 294 278 273 275 273 271 268 261 258 257 255 254 253 252 252 249 245 243 240 237 236 236 235 234 233 231 231 230 230 230 230 230 231 231 230 230 228 227 225 223 221 221 222 218 212 211 210 212 219 225 228 232 237 237 229 235 245 227 222 225 232 237 239
92 93 88 84 80 74 74 73 62 46 35 26 22 17 14 14 11 9 6 360 349 334 318 301 286 278 275 275 275 271 266 264 261 257 254 253 253 252 249 246 243 241 238 237 237 237 236 234 233 232 232 231 230 229 230 229 229 229 229 228 226 224 222 220 220 219 215 212 211 208 208 211 217 225 230 232 232 234 238 238 221 216 229 239 239
91 89 86 80 74 66 64 64 57 43 33 26 21 16 13 11 7 5 5 2 357 352 340 323 307 293 283 277 275 273 270 269 267 263 259 254 252 250 250 249 246 244 242 240 239 239 238 237 235 235 235 234 232 231 230 230 228 227 228 227 224 222 220 218 218 218 216 213 210 206 206 206 206 208 213 217 220 225 230 242 230 221 232 242 240
92 88 82 75 68 59 57 54 48 39 31 24 19 15 12 10 5 2 2 0 358 357 352 341 324 308 295 285 279 275 272 270 267 265 262 260 257 254 252 250 248 246 244 242 241 239 238 237 237 237 237 235 234 232 232 232 230 229 228 226 222 219 218 217 215 216 216 214 211 208 209 211 211 213 214 213 215 220 221 232 230 223 236 248 247
96 94 91 84 77 63 55 48 39 32 26 21 17 12 9 8 4 360 358 357 355 355 354 349 339 323 309 296 288 282 278 273 270 267 264 261 261 260 258 254 250 247 244 242 241 239 237 237 237 237 236 236 235 233 232 232 231 230 230 229 226 220 217 215 213 213 214 216 219 219 219 219 218 217 215 212 216 219 219 226 227 217 225 246 249
104 105 97 88 83 68 58 46 33 26 20 16 12 9 5 3 2 357 355 355 353 352 352 351 346 337 323 307 297 292 286 280 275 271 268 264 261 260 259 258 255 253 249 246 244 242 240 238 238 238 237 236 236 235 233 231 231 230 229 229 228 226 222 218 217 218 220 222 224 225 226 226 225 220 214 212 214 215 214 215 219 225 234 241 244
100 95 87 80 76 64 57 43 27 19 11 7 5 4 1 359 358 353 352 353 352 349 348 349 347 342 333 319 307 299 293 288 282 278 274 269 266 262 260 259 258 257 256 254 251 248 245 241 238 238 238 237 236 236 235 232 231 230 229 228 227 228 226 224 223 223 224 224 223 225 226 225 223 220 215 213 215 216 216 214 209 213 244 244 238
97 90 80 69 65 57 51 38 18 7 360 356 356 356 354 352 352 349 348 350 350 349 346 345 344 342 339 329 318 309 302 296 291 287 282 276 272 268 265 262 260 260 259 258 256 253 250 245 240 238 238 238 237 236 235 232 230 230 231 231 229 229 227 225 224 224 224 225 227 229 227 222 220 218 215 214 216 217 218 218 213 207 215 235 233
100 97 92 76 63 46 37 18 357 349 347 346 345 347 347 345 344 342 344 346 348 348 345 344 342 341 341 337 327 314 305 303 300 296 291 285 279 274 271 268 264 262 261 260 259 259 256 250 244 240 238 237 236 236 234 233 231 231 231 231 230 229 228 225 224 224 225 227 228 227 222 219 219 218 218 217 218 220 220 219 216 211 208 204 212
99 98 98 92 78 34 10 345 338 336 335 337 336 336 337 339 339 337 338 341 343 344 343 343 343 339 338 338 334 327 314 308 306 303 299 294 288 282 276 273 269 266 264 261 260 260 260 256 250 246 242 237 235 234 233 232 230 229 230 230 230 229 227 225 222 221 222 223 221 219 217 217 219 218 218 218 218 219 217 215 214 214 213 210 200
97 94 93 93 77 334 326 324 329 329 328 328 327 331 333 332 334 335 334 335 337 341 341 341 342 339 336 334 333 331 325 316 310 309 307 301 296 290 284 279 274 270 267 265 262 259 258 258 254 251 247 240 235 233 232 231 229 228 228 228 228 227 226 225 220 217 216 216 215 215 215 216 217 216 216 216 215 215 215 215 215 217 221 221 210
109 110 123 159 262 298 313 320 322 322 323 325 326 332 334 331 331 332 332 333 335 337 338 339 340 338 336 334 332 332 330 325 318 313 310 306 302 297 292 287 282 276 271 267 265 262 260 258 255 251 247 243 239 234 231 230 228 227 227 227 226 225 225 226 224 220 217 214 214 216 217 215 213 214 215 215 215 216 217 219 219 219 222 224 216
131 147 182 206 237 276 302 314 317 316 317 326 334 336 335 333 333 332 331 332 334 335 336 336 335 335 334 332 330 330 331 328 322 315 309 308 307 304 299 295 289 283 278 272 268 264 262 260 257 253 248 245 243 240 236 231 228 227 227 226 225 223 223 224 225 225 223 219 216 215 216 215 212 211 213 214 215 217 219 220 219 218 220 221 215
156 177 203 213 219 245 293 311 314 314 318 331 339 337 334 333 334 336 334 333 332 333 334 334 333 332 331 331 330 329 328 328 325 321 316 310 308 308 306 303 296 289 284 278 273 269 264 261 258 254 249 244 242 241 239 234 229 227 226 226 224 223 223 223 223 224 222 219 216 214 215 214 212 212 213 213 213 214 217 218 216 215 217 218 216
176 191 210 211 196 206 313 317 315 319 327 337 339 336 334 333 334 337 337 335 333 331 332 333 332 331 330 330 330 329 327 327 327 326 323 317 311 309 309 307 303 297 289 283 278 274 270 265 261 258 253 248 244 241 239 237 234 230 228 226 224 222 222 222 222 222 220 217 214 214 214 212 211 213 215 215 214 214 215 215 213 212 215 216 216
199 201 201 189 156 112 331 319 319 326 330 333 336 334 332 330 330 333 335 335 334 332 333 333 333 333 333 332 331 330 328 327 327 327 325 324 320 314 311 310 307 303 297 289 282 277 273 269 265 261 256 250 246 241 237 236 236 236 235 233 230 226 223 221 220 219 218 215 214 214 214 212 211 213 215 215 214 214 214 212 210 210 213 215 216
200 193 179 168 155 155 270 297 308 317 321 326 331 328 326 326 326 329 329 328 333 338 339 337 336 334 335 336 334 332 329 327 327 326 325 324 323 318 315 313 311 308 303 297 290 281 275 271 268 264 259 252 246 240 237 237 237 238 238 237 234 231 227 223 221 219 216 215 215 215 215 213 212 212 213 212 212 212 212 210 209 210 211 214 215
190 183 179 177 169 178 219 266 291 304 311 320 326 319 320 323 322 326 327 325 333 343 343 340 339 336 335 337 335 331 330 328 326 326 325 324 323 319 315 310 308 308 306 303 297 289 280 273 269 266 263 257 249 243 240 240 240 239 237 236 235 233 232 229 226 222 218 217 217 217 217 215 212 212 211 210 210 210 210 209 209 210 210 211 212
184 176 180 184 184 200 216 231 259 280 293 307 311 310 318 326 323 324 326 326 332 340 343 343 341 339 335 334 332 330 329 328 326 326 327 325 322 319 315 309 305 305 305 304 301 296 289 280 272 267 265 261 253 247 246 246 244 241 238 236 234 234 232 230 227 224 222 221 221 220 219 217 215 213 212 211 210 210 209 210 209 209 209 209 208
186 179 186 191 198 210 210 218 235 242 256 286 297 304 317 323 322 322 324 327 330 334 339 342 341 339 337 333 330 329 329 329 328 329 330 328 323 320 317 313 307 303 303 304 302 299 295 288 278 270 266 264 257 251 251 250 247 242 238 235 233 233 232 230 227 226 225 224 224 223 222 221 219 218 216 215 213 211 209 210 210 208 207 206 205
191 197 204 197 198 206 203 213 223 216 215 256 286 304 313 314 318 322 324 326 330 332 336 339 338 338 337 334 332 330 330 330 331 332 333 330 326 322 320 317 312 305 303 305 305 302 298 293 286 275 269 265 259 253 252 251 246 241 237 234 232 232 232 231 229 228 226 226 225 224 224 224 222 221 220 218 216 213 210 209 208 206 205 204 203
194 211 220 205 202 207 201 204 210 202 196 220 262 295 304 311 319 322 323 327 330 332 335 336 335 336 336 336 336 334 333 332 332 333 333 331 329 326 323 322 318 313 308 308 307 305 301 296 292 283 275 268 261 254 252 251 247 242 237 235 233 232 232 232 231 230 229 228 227 226 225 225 223 221 220 219 217 215 213 212 209 206 204 202 200
203 214 218 209 209 210 201 202 204 193 184 195 227 276 297 311 320 319 320 327 328 329 333 334 334 334 335 336 338 337 335 334 334 333 332 331 330 327 325 324 322 319 314 310 307 305 304 301 297 291 283 275 267 259 255 253 248 244 239 235 234 234 234 233 234 233 232 230 228 227 226 225 222 221 220 220 219 216 215 214 212 210 207 205 202
215 212 210 211 214 207 200 209 205 183 166 176 208 261 299 312 316 315 320 327 326 324 330 335 336 335 335 336 337 337 336 336 336 335 332 331 329 327 326 325 323 321 318 315 310 306 306 304 299 294 289 283 275 268 261 257 250 245 241 238 235 234 235 235 235 235 235 233 230 228 227 225 222 220 219 218 217 216 215 214 214 213 212 212 211
225 209 203 213 209 193 194 204 192 162 147 164 200 254 303 311 311 313 321 326 322 322 328 333 335 335 335 336 335 336 336 336 337 335 332 330 327 324 324 325 324 322 319 317 316 313 310 306 301 295 291 287 282 274 266 260 255 248 243 239 236 235 234 235 236 236 235 234 232 229 227 225 222 219 217 215 213 212 213 214 214 215 215 215 216
219 199 201 213 196 182 187 185 164 146 151 169 179 252 295 302 309 316 324 321 317 322 329 331 332 334 336 336 335 334 333 334 336 336 333 330 326 323 323 323 324 323 320 318 319 319 314 310 306 300 295 289 284 279 271 264 258 253 247 242 239 237 236 237 237 236 235 234 233 230 227 225 222 218 215 213 210 209 209 210 211 213 214 214 215
212 198 202 203 183 176 174 163 152 151 156 160 155 210 286 300 316 321 321 319 318 323 328 329 330 333 335 336 334 332 331 332 334 335 332 329 325 322 321 322 322 322 319 316 317 320 318 314 310 306 300 293 285 280 274 267 260 255 249 246 244 242 240 239 239 238 236 235 234 232 229 225 222 218 215 212 210 208 207 207 207 209 212 214 215
203 192 199 204 194 181 164 148 145 149 144 139 145 181 304 320 331 324 319 324 327 327 329 330 331 333 333 333 333 331 330 330 331 332 330 328 326 322 320 320 321 319 317 314 315 319 319 315 313 311 305 298 289 282 275 267 262 257 250 247 247 245 242 240 238 238 237 236 235 232 229 225 221 217 215 213 212 208 205 205 205 206 208 211 214
193 204 218 217 195 167 148 137 133 133 130 127 126 92 21 352 343 335 334 340 340 336 334 331 331 332 332 332 333 331 329 327 328 329 328 326 325 321 318 319 319 317 316 315 314 317 318 316 313 311 308 303 296 289 280 270 264 260 254 249 246 245 242 239 237 236 236 236 235 232 228 225 221 217 216 214 212 209 206 205 204 203 205 208 210
205 221 208 169 149 137 133 132 127 119 119 118 105 85 58 27 11 2 354 352 347 341 338 334 331 332 332 332 333 331 327 326 325 324 324 324 323 319 316 318 317 314 313 314 314 315 316 316 314 310 308 305 299 294 286 276 266 261 259 255 249 244 240 237 235 234 234 234 234 232 228 225 221 218 217 215 212 209 207 205 203 201 202 205 207
211 198 148 130 130 127 126 127 120 109 107 108 99 87 70 49 31 19 9 2 350 340 336 333 330 331 331 333 333 330 327 325 323 322 322 322 320 317 315 316 316 312 311 311 314 315 315 316 316 312 308 305 301 296 290 280 270 264 261 259 253 244 237 234 231 229 230 231 231 230 228 226 223 220 218 216 212 209 208 206 204 200 201 205 206
164 149 139 133 130 125 119 114 109 103 100 101 98 87 71 54 35 25 14 1 347 338 335 333 332 333 334 335 334 331 329 328 324 323 323 321 320 318 316 318 318 314 311 310 312 315 314 316 320 318 312 307 304 300 294 283 274 267 264 263 255 244 238 234 229 225 225 225 225 226 226 226 225 223 221 218 214 211 210 208 205 202 203 206 206
128 132 132 126 120 117 110 102 99 98 93 94 94 85 70 53 39 27 9 353 343 339 338 337 336 337 336 336 336 333 332 331 329 327 324 322 322 321 318 319 318 314 311 311 313 316 315 317 323 323 317 311 309 306 301 291 279 270 267 266 259 249 243 237 230 226 223 220 219 219 221 223 224 223 222 221 218 214 212 210 209 208 209 209 206
120 125 124 116 109 104 98 92 87 84 83 87 88 79 66 54 42 21 359 349 346 344 343 342 343 343 340 338 338 336 335 334 332 329 323 320 323 324 321 321 318 314 312 312 314 317 318 321 326 326 322 317 314 313 311 304 291 279 272 269 265 258 253 245 236 229 223 219 217 217 217 219 222 222 221 222 221 217 213 212 212 212 212 211 206
108 113 115 111 104 96 91 85 78 75 74 77 78 71 61 52 35 9 354 352 352 349 348 349 351 350 344 341 339 338 337 335 331 328 322 318 322 325 324 323 321 318 315 314 316 320 322 324 327 327 325 322 319 319 318 314 307 295 282 275 268 263 259 252 243 234 227 220 217 216 214 215 220 222 221 221 223 220 215 213 214 213 212 209 205
103 108 111 108 102 95 89 81 73 69 67 65 66 65 58 44 22 3 357 357 354 353 354 354 353 350 345 343 341 338 336 335 333 331 325 322 325 327 325 325 325 321 317 315 318 322 324 327 329 327 325 325 324 323 321 319 316 308 296 284 273 265 261 256 249 243 235 225 219 215 210 210 217 221 221 221 223 221 217 214 212 212 209 206 202
95 101 106 104 99 95 90 80 69 63 61 58 55 54 48 33 12 3 2 359 356 357 357 354 350 348 346 343 339 336 336 336 335 334 329 325 326 326 324 324 324 323 321 319 319 321 323 326 326 324 323 324 325 324 322 321 320 316 309 298 284 271 263 258 253 248 242 234 224 216 211 211 217 221 221 220 221 220 217 213 210 208 206 202 200
90 98 103 102 97 92 87 78 67 60 57 54 47 42 37 23 8 6 5 1 360 359 355 352 349 348 347 343 337 334 336 336 336 335 330 325 324 323 321 321 322 322 321 319 319 321 323 324 322 319 318 320 322 323 321 320 321 322 318 310 299 285 271 261 256 251 246 242 230 218 213 215 218 219 218 217 216 216 214 211 208 206 203 201 199
81 96 103 99 92 87 83 76 67 56 52 51 43 32 25 17 10 7 5 3 4 1 354 351 350 347 345 342 336 334 334 335 335 335 331 327 325 322 318 317 318 319 317 317 318 320 321 320 317 315 315 315 317 320 320 319 321 326 326 321 313 302 285 269 260 251 245 244 233 217 213 217 218 217 217 215 213 211 208 205 204 203 202 202 201
60 76 87 87 84 82 80 74 64 54 50 50 41 22 14 13 12 9 5 3 4 1 355 352 351 347 343 341 338 334 333 333 333 333 331 327 325 322 318 314 313 313 311 311 313 314 314 312 310 311 312 311 312 316 318 317 314 314 316 317 315 310 297 279 263 248 240 239 228 210 206 210 209 205 204 203 201 200 200 199 200 201 201 201 200
51 62 71 74 75 73 72 68 58 51 50 48 39 16 7 11 13 10 7 5 1 357 355 354 351 347 344 342 339 336 333 332 331 330 328 324 321 319 316 312 314 315 311 308 307 305 304 304 305 307 309 307 306 311 316 317 312 306 304 306 306 307 300 286 269 249 234 228 212 195 190 192 190 187 188 189 190 191 194 197 200 201 200 198 196
51 59 64 66 66 64 65 62 52 47 48 47 39 15 4 10 13 11 9 6 359 353 353 353 351 348 345 342 338 336 335 333 331 330 329 326 324 323 316 308 311 318 320 316 312 308 308 308 309 311 312 310 308 310 315 318 315 305 299 297 298 299 296 286 274 251 230 217 198 184 182 181 179 179 182 187 190 191 192 195 199 200 199 198 197
42 53 60 63 61 56 54 50 42 40 43 45 41 19 5 8 12 12 9 5 358 352 349 347 347 347 344 339 336 334 334 333 331 330 329 328 328 329 327 320 314 317 321 323 323 322 322 322 320 319 320 320 318 318 321 324 321 308 295 289 291 294 291 283 272 250 229 215 199 186 184 183 181 182 184 187 190 192 192 191 193 195 197 197 196